| time (UTC) | temp F | wind direction | speed MPH | gust MPH | rain 1hr in | rain 24hr in | rain mn in | humidity % | barometer mb |
| 20260510031613 | 53 | 124 | 0.0 | 7.0 | 0.00 | 0.11 | 0.11 | 95 | 1013.0 |
| 20260510031111 | 53 | 65 | 0.0 | 0.0 | 0.00 | 0.11 | 0.11 | 96 | 1013.0 |
| 20260510030605 | 53 | 70 | 0.0 | 7.0 | 0.00 | 0.11 | 0.11 | 95 | 1013.0 |
| 20260510030103 | 53 | 110 | 0.0 | 6.0 | 0.00 | 0.11 | 0.11 | 95 | 1013.0 |
| 20260510025600 | 53 | 342 | 0.0 | 0.0 | 0.00 | 0.11 | 0.11 | 95 | 1013.0 |
| 20260510025058 | 53 | 27 | 0.0 | 0.0 | 0.00 | 0.11 | 0.11 | 94 | 1012.7 |
| 20260510024554 | 53 | 43 | 0.0 | 6.0 | 0.00 | 0.11 | 0.11 | 94 | 1012.9 |
| 20260510024050 | 53 | 90 | 0.0 | 8.0 | 0.00 | 0.11 | 0.11 | 93 | 1012.7 |
| 20260510023547 | 53 | 44 | 0.0 | 0.0 | 0.00 | 0.11 | 0.11 | 93 | 1013.1 |
| 20260510023044 | 54 | 44 | 0.0 | 0.0 | 0.00 | 0.11 | 0.11 | 92 | 1012.8 |
| 20260510022543 | 53 | 36 | 0.0 | 6.0 | 0.00 | 0.11 | 0.11 | 93 | 1012.8 |
| 20260510022037 | 54 | 251 | 0.0 | 0.0 | 0.00 | 0.11 | 0.11 | 92 | 1012.7 |
| 20260510021534 | 53 | 151 | 0.0 | 7.0 | 0.00 | 0.11 | 0.11 | 93 | 1012.7 |
| 20260510021033 | 53 | 110 | 0.0 | 8.0 | 0.00 | 0.11 | 0.11 | 92 | 1012.7 |
| 20260510020532 | 53 | 93 | 0.0 | 6.0 | 0.00 | 0.11 | 0.11 | 92 | 1012.6 |
| 20260510020028 | 53 | 74 | 0.0 | 0.0 | 0.00 | 0.11 | 0.11 | 92 | 1012.6 |
| 20260510015524 | 54 | 336 | 0.0 | 0.0 | 0.00 | 0.11 | 0.11 | 92 | 1012.4 |
| 20260510015020 | 53 | 81 | 0.0 | 6.0 | 0.00 | 0.11 | 0.11 | 92 | 1012.4 |
| 20260510014517 | 53 | 267 | 0.0 | 6.0 | 0.00 | 0.11 | 0.11 | 91 | 1012.5 |
| 20260510014014 | 54 | 59 | 0.0 | 0.0 | 0.00 | 0.11 | 0.11 | 91 | 1012.3 |
| 20260510013508 | 54 | 71 | 0.0 | 0.0 | 0.00 | 0.11 | 0.11 | 91 | 1012.2 |
| 20260510013004 | 54 | 76 | 0.0 | 0.0 | 0.00 | 0.11 | 0.11 | 91 | 1012.2 |
| 20260510012459 | 54 | 59 | 0.0 | 6.0 | 0.00 | 0.11 | 0.11 | 90 | 1012.2 |
| 20260510011954 | 54 | 82 | 0.0 | 0.0 | 0.00 | 0.11 | 0.11 | 90 | 1012.2 |
| 20260510011449 | 55 | 53 | 0.0 | 6.0 | 0.00 | 0.11 | 0.11 | 89 | 1012.1 |
| 20260510010945 | 55 | 53 | 0.0 | 0.0 | 0.00 | 0.11 | 0.11 | 89 | 1012.0 |
| 20260510010443 | 55 | 65 | 0.0 | 8.0 | 0.00 | 0.11 | 0.11 | 89 | 1012.1 |
| 20260510005940 | 55 | 76 | 0.0 | 6.0 | 0.00 | 0.11 | 0.11 | 89 | 1012.0 |
| 20260510005436 | 55 | 92 | 0.0 | 6.0 | 0.00 | 0.11 | 0.11 | 87 | 1011.8 |
| 20260510004933 | 55 | 14 | 0.0 | 6.0 | 0.00 | 0.11 | 0.11 | 87 | 1011.9 |
| 20260510004430 | 56 | 65 | 0.0 | 7.0 | 0.00 | 0.11 | 0.11 | 86 | 1012.0 |
| 20260510003928 | 56 | 14 | 0.0 | 6.0 | 0.00 | 0.11 | 0.11 | 86 | 1012.0 |
| 20260510003425 | 56 | 27 | 0.0 | 0.0 | 0.00 | 0.11 | 0.11 | 85 | 1011.8 |
| 20260510002924 | 57 | 174 | 0.0 | 6.0 | 0.00 | 0.11 | 0.11 | 83 | 1012.0 |
| 20260510002421 | 57 | 256 | 0.0 | 9.0 | 0.00 | 0.11 | 0.11 | 81 | 1011.8 |
| 20260510001917 | 57 | 147 | 0.0 | 6.0 | 0.00 | 0.11 | 0.11 | 81 | 1011.6 |
| 20260510001415 | 58 | 161 | 0.0 | 7.0 | 0.00 | 0.11 | 0.11 | 80 | 1011.5 |
| 20260510000912 | 58 | 136 | 0.0 | 0.0 | 0.00 | 0.11 | 0.11 | 80 | 1011.6 |
| 20260510000411 | 58 | 156 | 0.0 | 9.0 | 0.00 | 0.11 | 0.11 | 80 | 1011.5 |
| 20260509235905 | 58 | 171 | 0.0 | 6.0 | 0.00 | 0.11 | 0.11 | 81 | 1011.4 |
| 20260509235402 | 58 | 235 | 0.0 | 0.0 | 0.00 | 0.11 | 0.11 | 80 | 1011.5 |
| 20260509234858 | 59 | 210 | 11.0 | 17.0 | 0.00 | 0.11 | 0.11 | 79 | 1011.7 |
| 20260509234356 | 59 | 185 | 8.0 | 8.0 | 0.00 | 0.11 | 0.11 | 79 | 1011.5 |
| 20260509233854 | 59 | 171 | 6.0 | 9.0 | 0.00 | 0.11 | 0.11 | 78 | 1011.4 |
| 20260509233351 | 60 | 218 | 0.0 | 8.0 | 0.00 | 0.11 | 0.11 | 78 | 1011.4 |
| 20260509232846 | 60 | 190 | 10.0 | 12.0 | 0.00 | 0.11 | 0.11 | 76 | 1011.3 |
| 20260509232344 | 60 | 26 | 0.0 | 9.0 | 0.00 | 0.11 | 0.11 | 76 | 1011.1 |
| 20260509231840 | 60 | 154 | 8.0 | 12.0 | 0.00 | 0.11 | 0.11 | 75 | 1011.3 |
| 20260509231337 | 60 | 184 | 8.0 | 11.0 | 0.00 | 0.11 | 0.11 | 76 | 1011.5 |
| 20260509230835 | 60 | 216 | 6.0 | 7.0 | 0.00 | 0.11 | 0.11 | 78 | 1011.3 |
| 20260509230332 | 60 | 198 | 10.0 | 12.0 | 0.00 | 0.11 | 0.11 | 75 | 1011.4 |
| 20260509225827 | 60 | 175 | 9.0 | 10.0 | 0.00 | 0.11 | 0.11 | 75 | 1011.4 |
| 20260509225324 | 60 | 218 | 7.0 | 15.0 | 0.00 | 0.11 | 0.11 | 75 | 1011.5 |
| 20260509224820 | 60 | 233 | 7.0 | 16.0 | 0.00 | 0.11 | 0.11 | 75 | 1011.5 |
| 20260509224316 | 60 | 241 | 17.0 | 18.0 | 0.00 | 0.11 | 0.11 | 74 | 1011.3 |
| 20260509223813 | 60 | 222 | 23.0 | 26.0 | 0.00 | 0.11 | 0.11 | 73 | 1011.3 |
| 20260509223310 | 60 | 254 | 8.0 | 10.0 | 0.00 | 0.11 | 0.11 | 75 | 1011.4 |
| 20260509222807 | 60 | 81 | 7.0 | 13.0 | 0.00 | 0.11 | 0.11 | 75 | 1011.5 |
| 20260509222306 | 60 | 193 | 10.0 | 15.0 | 0.00 | 0.11 | 0.11 | 76 | 1011.2 |
| 20260509221758 | 60 | 204 | 10.0 | 12.0 | 0.00 | 0.11 | 0.11 | 74 | 1011.5 |
| 20260509221255 | 60 | 159 | 6.0 | 11.0 | 0.00 | 0.11 | 0.11 | 75 | 1011.3 |
| 20260509220751 | 61 | 198 | 16.0 | 20.0 | 0.00 | 0.11 | 0.11 | 73 | 1011.2 |
| 20260509220247 | 61 | 243 | 11.0 | 15.0 | 0.00 | 0.11 | 0.11 | 72 | 1011.5 |
| 20260509215742 | 61 | 181 | 6.0 | 18.0 | 0.00 | 0.11 | 0.11 | 74 | 1011.5 |
| 20260509215240 | 61 | 140 | 0.0 | 13.0 | 0.00 | 0.11 | 0.11 | 74 | 1011.6 |
| 20260509214736 | 61 | 264 | 8.0 | 10.0 | 0.00 | 0.11 | 0.11 | 74 | 1011.8 |
| 20260509214234 | 61 | 43 | 6.0 | 8.0 | 0.00 | 0.11 | 0.11 | 75 | 1011.7 |
| 20260509213730 | 61 | 237 | 7.0 | 12.0 | 0.00 | 0.11 | 0.11 | 75 | 1011.7 |
| 20260509213226 | 61 | 245 | 7.0 | 8.0 | 0.00 | 0.11 | 0.11 | 77 | 1011.8 |
| 20260509212724 | 60 | 255 | 7.0 | 9.0 | 0.00 | 0.11 | 0.11 | 77 | 1011.9 |
| 20260509212221 | 61 | 278 | 0.0 | 9.0 | 0.00 | 0.11 | 0.11 | 78 | 1012.0 |
| 20260509211717 | 61 | 238 | 0.0 | 11.0 | 0.00 | 0.11 | 0.11 | 77 | 1012.2 |
| 20260509211213 | 60 | 234 | 0.0 | 9.0 | 0.00 | 0.11 | 0.11 | 77 | 1012.1 |
| 20260509210710 | 60 | 150 | 0.0 | 12.0 | 0.00 | 0.11 | 0.11 | 76 | 1012.1 |
| 20260509210207 | 60 | 172 | 0.0 | 11.0 | 0.00 | 0.11 | 0.11 | 75 | 1011.9 |
| 20260509205707 | 60 | 256 | 0.0 | 9.0 | 0.00 | 0.11 | 0.11 | 75 | 1011.9 |
| 20260509205207 | 60 | 218 | 0.0 | 0.0 | 0.00 | 0.11 | 0.11 | 75 | 1011.8 |
| 20260509204703 | 60 | 188 | 0.0 | 0.0 | 0.00 | 0.11 | 0.11 | 77 | 1011.5 |
| 20260509204159 | 60 | 43 | 0.0 | 11.0 | 0.00 | 0.11 | 0.11 | 75 | 1011.6 |
| 20260509203655 | 60 | 245 | 8.0 | 9.0 | 0.00 | 0.11 | 0.11 | 78 | 1011.8 |
| 20260509203154 | 60 | 193 | 0.0 | 7.0 | 0.00 | 0.11 | 0.11 | 78 | 1011.9 |
| 20260509202649 | 60 | 131 | 0.0 | 12.0 | 0.00 | 0.11 | 0.11 | 78 | 1011.7 |
| 20260509202144 | 60 | 162 | 8.0 | 8.0 | 0.00 | 0.11 | 0.11 | 78 | 1011.8 |
| 20260509201640 | 60 | 290 | 0.0 | 8.0 | 0.00 | 0.11 | 0.11 | 78 | 1011.9 |
| 20260509201137 | 61 | 280 | 6.0 | 9.0 | 0.00 | 0.11 | 0.11 | 76 | 1011.9 |
| 20260509200632 | 61 | 150 | 0.0 | 10.0 | 0.00 | 0.11 | 0.11 | 76 | 1012.1 |
| 20260509200123 | 62 | 204 | 0.0 | 9.0 | 0.00 | 0.11 | 0.11 | 74 | 1012.3 |
| 20260509195619 | 62 | 34 | 0.0 | 9.0 | 0.00 | 0.11 | 0.11 | 74 | 1012.1 |
| 20260509195113 | 61 | 124 | 0.0 | 12.0 | 0.00 | 0.11 | 0.11 | 79 | 1012.4 |
| 20260509194612 | 61 | 65 | 0.0 | 11.0 | 0.00 | 0.11 | 0.11 | 77 | 1012.3 |
| 20260509194111 | 61 | 35 | 15.0 | 15.0 | 0.00 | 0.11 | 0.11 | 78 | 1012.1 |
| 20260509193606 | 61 | 110 | 0.0 | 21.0 | 0.00 | 0.11 | 0.11 | 76 | 1012.2 |
| 20260509193102 | 61 | 241 | 8.0 | 10.0 | 0.00 | 0.11 | 0.11 | 75 | 1012.3 |
| 20260509192559 | 61 | 188 | 0.0 | 11.0 | 0.00 | 0.11 | 0.11 | 76 | 1012.5 |
| 20260509192054 | 61 | 248 | 6.0 | 8.0 | 0.00 | 0.11 | 0.11 | 78 | 1012.5 |
| 20260509191554 | 60 | 235 | 6.0 | 22.0 | 0.00 | 0.11 | 0.11 | 78 | 1012.5 |
| 20260509191050 | 60 | 227 | 23.0 | 23.0 | 0.00 | 0.11 | 0.11 | 79 | 1012.4 |
| 20260509190547 | 59 | 222 | 23.0 | 27.0 | 0.00 | 0.11 | 0.11 | 82 | 1012.5 |
| 20260509190045 | 59 | 34 | 0.0 | 28.0 | 0.00 | 0.11 | 0.11 | 82 | 1012.8 |
| 20260509185542 | 59 | 47 | 13.0 | 25.0 | 0.00 | 0.11 | 0.11 | 84 | 1012.8 |
| 20260509185038 | 58 | 218 | 21.0 | 31.0 | 0.00 | 0.11 | 0.11 | 84 | 1013.0 |
| 20260509184537 | 59 | 229 | 21.0 | 31.0 | 0.00 | 0.11 | 0.11 | 84 | 1013.0 |
| 20260509184033 | 59 | 196 | 13.0 | 20.0 | 0.00 | 0.11 | 0.11 | 84 | 1013.1 |
| 20260509183528 | 58 | 220 | 19.0 | 45.0 | 0.00 | 0.11 | 0.11 | 87 | 1013.1 |
| 20260509183025 | 57 | 197 | 22.0 | 22.0 | 0.00 | 0.11 | 0.11 | 87 | 1012.9 |
| 20260509182521 | 56 | 197 | 9.0 | 12.0 | 0.00 | 0.11 | 0.11 | 88 | 1013.1 |
| 20260509182018 | 56 | 140 | 8.0 | 22.0 | 0.00 | 0.11 | 0.11 | 88 | 1013.5 |
| 20260509181516 | 55 | 191 | 8.0 | 22.0 | 0.00 | 0.11 | 0.11 | 86 | 1013.3 |
| 20260509181014 | 55 | 214 | 10.0 | 26.0 | 0.02 | 0.11 | 0.11 | 89 | 1013.5 |
| 20260509180508 | 55 | 259 | 12.0 | 21.0 | 0.02 | 0.11 | 0.11 | 89 | 1013.3 |
| 20260509180007 | 55 | 142 | 7.0 | 18.0 | 0.00 | 0.11 | 0.11 | 90 | 1013.5 |
| 20260509175502 | 55 | 219 | 27.0 | 27.0 | 0.00 | 0.11 | 0.11 | 89 | 1013.6 |
| 20260509174959 | 55 | 162 | 0.0 | 39.0 | 0.00 | 0.11 | 0.11 | 89 | 1013.4 |
| 20260509174455 | 55 | 219 | 0.0 | 10.0 | 0.02 | 0.11 | 0.11 | 89 | 1013.5 |
| 20260509173950 | 55 | 204 | 16.0 | 22.0 | 0.02 | 0.11 | 0.11 | 88 | 1013.6 |
| 20260509173450 | 55 | 223 | 16.0 | 27.0 | 0.00 | 0.11 | 0.11 | 86 | 1013.6 |
| 20260509172947 | 55 | 239 | 13.0 | 13.0 | 0.00 | 0.11 | 0.11 | 88 | 1013.6 |
| 20260509172444 | 55 | 216 | 16.0 | 21.0 | 0.00 | 0.11 | 0.11 | 87 | 1013.6 |
| 20260509171940 | 55 | 215 | 15.0 | 25.0 | 0.00 | 0.11 | 0.11 | 85 | 1013.6 |
| 20260509171436 | 55 | 262 | 12.0 | 20.0 | 0.00 | 0.11 | 0.11 | 85 | 1013.7 |
| 20260509170933 | 55 | 235 | 6.0 | 15.0 | 0.00 | 0.11 | 0.11 | 86 | 1013.7 |
| 20260509170429 | 56 | 211 | 9.0 | 15.0 | 0.00 | 0.11 | 0.11 | 85 | 1013.4 |
| 20260509165925 | 55 | 261 | 6.0 | 9.0 | 0.00 | 0.11 | 0.11 | 88 | 1013.5 |
| 20260509165424 | 55 | 251 | 0.0 | 11.0 | 0.00 | 0.11 | 0.11 | 87 | 1013.5 |
| 20260509164920 | 55 | 225 | 7.0 | 15.0 | 0.00 | 0.11 | 0.11 | 88 | 1013.7 |
| 20260509164416 | 55 | 243 | 10.0 | 15.0 | 0.00 | 0.11 | 0.11 | 87 | 1013.9 |
| 20260509163912 | 55 | 257 | 8.0 | 10.0 | 0.00 | 0.11 | 0.11 | 88 | 1014.0 |
| 20260509163410 | 55 | 231 | 13.0 | 15.0 | 0.00 | 0.11 | 0.11 | 88 | 1013.7 |
| 20260509162909 | 55 | 211 | 7.0 | 11.0 | 0.00 | 0.11 | 0.11 | 88 | 1013.6 |
| 20260509162408 | 54 | 245 | 0.0 | 12.0 | 0.02 | 0.11 | 0.11 | 91 | 1013.5 |
| 20260509161903 | 54 | 277 | 8.0 | 10.0 | 0.02 | 0.11 | 0.11 | 92 | 1013.4 |
| 20260509161400 | 54 | 273 | 0.0 | 0.0 | 0.02 | 0.10 | 0.10 | 93 | 1013.4 |
| 20260509160855 | 54 | 342 | 0.0 | 7.0 | 0.05 | 0.10 | 0.10 | 94 | 1013.3 |
| 20260509160351 | 53 | 7 | 0.0 | 0.0 | 0.05 | 0.10 | 0.10 | 94 | 1013.4 |
| 20260509155846 | 53 | 69 | 0.0 | 0.0 | 0.05 | 0.09 | 0.09 | 94 | 1013.6 |
| 20260509155343 | 53 | 65 | 0.0 | 0.0 | 0.09 | 0.09 | 0.09 | 94 | 1014.0 |
| 20260509154840 | 53 | 320 | 0.0 | 0.0 | 0.19 | 0.08 | 0.08 | 92 | 1014.0 |
| 20260509154337 | 54 | 30 | 0.0 | 0.0 | 0.17 | 0.07 | 0.07 | 91 | 1014.2 |
| 20260509153833 | 54 | 233 | 0.0 | 0.0 | 0.12 | 0.05 | 0.05 | 90 | 1014.2 |
| 20260509153330 | 54 | 251 | 9.0 | 11.0 | 0.12 | 0.04 | 0.04 | 90 | 1014.4 |
| 20260509152827 | 54 | 14 | 0.0 | 0.0 | 0.09 | 0.03 | 0.03 | 89 | 1014.0 |
| 20260509152323 | 55 | 71 | 0.0 | 7.0 | 0.07 | 0.02 | 0.02 | 87 | 1014.1 |
| 20260509151821 | 55 | 223 | 0.0 | 10.0 | 0.05 | 0.02 | 0.02 | 81 | 1014.4 |
| 20260509151316 | 56 | 236 | 10.0 | 15.0 | 0.05 | 0.01 | 0.01 | 79 | 1014.5 |
| 20260509150815 | 56 | 226 | 0.0 | 6.0 | 0.05 | 0.01 | 0.01 | 78 | 1014.4 |
| 20260509150312 | 56 | 201 | 10.0 | 12.0 | 0.02 | 0.00 | 0.00 | 76 | 1014.6 |
| 20260509145809 | 57 | 230 | 15.0 | 16.0 | 0.00 | 0.00 | 0.00 | 74 | 1014.7 |
| 20260509145309 | 57 | 210 | 7.0 | 11.0 | 0.00 | 0.00 | 0.00 | 74 | 1014.4 |
| 20260509144806 | 57 | 213 | 16.0 | 18.0 | 0.00 | 0.00 | 0.00 | 71 | 1014.4 |
| 20260509144303 | 58 | 223 | 18.0 | 23.0 | 0.00 | 0.00 | 0.00 | 69 | 1014.3 |
| 20260509143800 | 59 | 191 | 6.0 | 17.0 | 0.00 | 0.00 | 0.00 | 67 | 1014.4 |
| 20260509143258 | 58 | 226 | 8.0 | 20.0 | 0.00 | 0.00 | 0.00 | 67 | 1014.3 |
| 20260509142753 | 58 | 212 | 20.0 | 20.0 | 0.00 | 0.00 | 0.00 | 69 | 1014.5 |
| 20260509142249 | 58 | 232 | 9.0 | 19.0 | 0.00 | 0.00 | 0.00 | 67 | 1014.3 |
| 20260509141745 | 58 | 229 | 13.0 | 21.0 | 0.00 | 0.00 | 0.00 | 68 | 1014.2 |
| 20260509141243 | 58 | 248 | 10.0 | 16.0 | 0.00 | 0.00 | 0.00 | 66 | 1013.7 |
| 20260509140739 | 58 | 210 | 12.0 | 23.0 | 0.00 | 0.00 | 0.00 | 66 | 1013.4 |
| 20260509140236 | 58 | 185 | 8.0 | 11.0 | 0.00 | 0.00 | 0.00 | 67 | 1013.9 |
| 20260509135734 | 57 | 233 | 11.0 | 20.0 | 0.00 | 0.00 | 0.00 | 70 | 1014.2 |
| 20260509135232 | 57 | 232 | 12.0 | 16.0 | 0.00 | 0.00 | 0.00 | 72 | 1013.5 |
| 20260509134728 | 57 | 236 | 15.0 | 20.0 | 0.00 | 0.00 | 0.00 | 71 | 1013.9 |
| 20260509134226 | 57 | 220 | 10.0 | 19.0 | 0.00 | 0.00 | 0.00 | 71 | 1013.5 |
| 20260509133723 | 57 | 209 | 10.0 | 15.0 | 0.00 | 0.00 | 0.00 | 73 | 1013.3 |
| 20260509133219 | 57 | 236 | 16.0 | 19.0 | 0.00 | 0.00 | 0.00 | 75 | 1013.5 |
| 20260509132718 | 56 | 201 | 6.0 | 16.0 | 0.00 | 0.00 | 0.00 | 78 | 1013.3 |
| 20260509132216 | 56 | 14 | 0.0 | 7.0 | 0.00 | 0.00 | 0.00 | 70 | 1013.2 |
| 20260509131713 | 56 | 236 | 12.0 | 19.0 | 0.00 | 0.00 | 0.00 | 73 | 1013.5 |
| 20260509131209 | 56 | 214 | 7.0 | 12.0 | 0.00 | 0.00 | 0.00 | 73 | 1013.7 |
| 20260509130705 | 56 | 222 | 12.0 | 16.0 | 0.00 | 0.00 | 0.00 | 74 | 1013.7 |
| 20260509130201 | 56 | 215 | 15.0 | 19.0 | 0.00 | 0.00 | 0.00 | 71 | 1013.4 |
| 20260509125658 | 56 | 194 | 0.0 | 12.0 | 0.00 | 0.00 | 0.00 | 72 | 1013.6 |
| 20260509125155 | 56 | 227 | 15.0 | 20.0 | 0.00 | 0.00 | 0.00 | 73 | 1013.7 |
| 20260509124651 | 56 | 230 | 22.0 | 28.0 | 0.00 | 0.00 | 0.00 | 73 | 1013.6 |
| 20260509124148 | 56 | 214 | 13.0 | 37.0 | 0.00 | 0.00 | 0.00 | 70 | 1013.5 |
| 20260509123646 | 56 | 220 | 15.0 | 17.0 | 0.00 | 0.00 | 0.00 | 70 | 1013.4 |
| 20260509123143 | 56 | 254 | 12.0 | 23.0 | 0.00 | 0.00 | 0.00 | 69 | 1013.3 |
| 20260509122638 | 56 | 224 | 13.0 | 23.0 | 0.00 | 0.00 | 0.00 | 73 | 1013.5 |
| 20260509122136 | 56 | 172 | 12.0 | 25.0 | 0.00 | 0.00 | 0.00 | 72 | 1013.5 |
| 20260509121632 | 56 | 218 | 22.0 | 22.0 | 0.00 | 0.00 | 0.00 | 76 | 1013.5 |
| 20260509121130 | 56 | 193 | 17.0 | 17.0 | 0.00 | 0.00 | 0.00 | 74 | 1013.5 |
| 20260509120628 | 55 | 232 | 9.0 | 17.0 | 0.00 | 0.00 | 0.00 | 78 | 1013.2 |
| 20260509120126 | 55 | 197 | 11.0 | 17.0 | 0.00 | 0.00 | 0.00 | 78 | 1013.1 |
| 20260509115623 | 55 | 205 | 6.0 | 10.0 | 0.00 | 0.00 | 0.00 | 79 | 1013.1 |
| 20260509115121 | 55 | 173 | 6.0 | 9.0 | 0.00 | 0.00 | 0.00 | 79 | 1013.1 |
| 20260509114618 | 54 | 72 | 0.0 | 9.0 | 0.00 | 0.00 | 0.00 | 78 | 1013.1 |
| 20260509114117 | 54 | 170 | 0.0 | 10.0 | 0.00 | 0.00 | 0.00 | 79 | 1013.2 |
| 20260509113615 | 54 | 207 | 9.0 | 10.0 | 0.00 | 0.00 | 0.00 | 79 | 1013.3 |
| 20260509113112 | 54 | 28 | 0.0 | 9.0 | 0.00 | 0.00 | 0.00 | 79 | 1013.1 |
| 20260509112608 | 54 | 193 | 10.0 | 15.0 | 0.00 | 0.00 | 0.00 | 78 | 1013.3 |
| 20260509112106 | 53 | 171 | 0.0 | 9.0 | 0.00 | 0.00 | 0.00 | 80 | 1013.1 |
| 20260509111603 | 53 | 62 | 9.0 | 9.0 | 0.00 | 0.00 | 0.00 | 83 | 1013.0 |
| 20260509111100 | 53 | 55 | 7.0 | 8.0 | 0.00 | 0.00 | 0.00 | 84 | 1012.8 |
| 20260509110557 | 53 | 261 | 0.0 | 9.0 | 0.00 | 0.00 | 0.00 | 82 | 1013.1 |
| 20260509110054 | 53 | 225 | 6.0 | 12.0 | 0.00 | 0.00 | 0.00 | 80 | 1013.0 |
| 20260509105552 | 53 | 188 | 7.0 | 8.0 | 0.00 | 0.00 | 0.00 | 82 | 1013.0 |
| 20260509105049 | 52 | 265 | 0.0 | 17.0 | 0.00 | 0.00 | 0.00 | 83 | 1012.9 |
| 20260509104546 | 52 | 170 | 0.0 | 12.0 | 0.00 | 0.00 | 0.00 | 85 | 1012.8 |
| 20260509104043 | 52 | 151 | 0.0 | 8.0 | 0.00 | 0.00 | 0.00 | 84 | 1013.0 |
| 20260509103541 | 52 | 223 | 0.0 | 7.0 | 0.00 | 0.00 | 0.00 | 84 | 1012.9 |
| 20260509103039 | 52 | 233 | 7.0 | 8.0 | 0.00 | 0.00 | 0.00 | 82 | 1013.2 |
| 20260509102536 | 53 | 223 | 0.0 | 6.0 | 0.00 | 0.00 | 0.00 | 81 | 1012.7 |
| 20260509102032 | 52 | 229 | 7.0 | 9.0 | 0.00 | 0.00 | 0.00 | 81 | 1012.8 |
| 20260509101529 | 52 | 100 | 6.0 | 10.0 | 0.00 | 0.00 | 0.00 | 82 | 1012.7 |
| 20260509101026 | 52 | 101 | 6.0 | 15.0 | 0.00 | 0.00 | 0.00 | 83 | 1012.7 |
| 20260509100523 | 51 | 94 | 7.0 | 11.0 | 0.00 | 0.00 | 0.00 | 85 | 1012.6 |
| 20260509100020 | 51 | 64 | 7.0 | 10.0 | 0.00 | 0.00 | 0.00 | 85 | 1012.7 |
| 20260509095517 | 51 | 220 | 0.0 | 7.0 | 0.00 | 0.00 | 0.00 | 85 | 1012.9 |
| 20260509095014 | 52 | 233 | 0.0 | 12.0 | 0.00 | 0.00 | 0.00 | 84 | 1012.7 |
| 20260509094510 | 52 | 358 | 0.0 | 6.0 | 0.00 | 0.00 | 0.00 | 84 | 1012.6 |
| 20260509094008 | 53 | 71 | 6.0 | 8.0 | 0.00 | 0.00 | 0.00 | 82 | 1012.7 |
| 20260509093506 | 53 | 256 | 6.0 | 6.0 | 0.00 | 0.00 | 0.00 | 81 | 1012.9 |
| 20260509093003 | 53 | 165 | 0.0 | 6.0 | 0.00 | 0.00 | 0.00 | 81 | 1012.6 |
| 20260509092501 | 53 | 207 | 0.0 | 6.0 | 0.00 | 0.00 | 0.00 | 82 | 1012.7 |
| 20260509091959 | 52 | 174 | 6.0 | 9.0 | 0.00 | 0.00 | 0.00 | 82 | 1012.9 |
| 20260509091456 | 53 | 140 | 0.0 | 9.0 | 0.00 | 0.00 | 0.00 | 82 | 1012.8 |
| 20260509090953 | 53 | 92 | 0.0 | 7.0 | 0.00 | 0.00 | 0.00 | 82 | 1012.8 |
| 20260509090450 | 53 | 68 | 0.0 | 6.0 | 0.00 | 0.00 | 0.00 | 81 | 1012.8 |
| 20260509085948 | 53 | 183 | 7.0 | 8.0 | 0.00 | 0.00 | 0.00 | 82 | 1012.9 |
| 20260509085444 | 53 | 166 | 0.0 | 6.0 | 0.00 | 0.00 | 0.00 | 82 | 1013.0 |
| 20260509084941 | 53 | 134 | 0.0 | 0.0 | 0.00 | 0.00 | 0.00 | 82 | 1012.9 |
| 20260509084438 | 53 | 159 | 0.0 | 8.0 | 0.00 | 0.00 | 0.00 | 81 | 1013.2 |
| 20260509083935 | 53 | 164 | 6.0 | 7.0 | 0.00 | 0.00 | 0.00 | 80 | 1013.3 |
| 20260509083432 | 53 | 90 | 0.0 | 9.0 | 0.00 | 0.00 | 0.00 | 80 | 1013.2 |
| 20260509082929 | 53 | 336 | 0.0 | 10.0 | 0.00 | 0.00 | 0.00 | 80 | 1013.4 |
| 20260509082426 | 53 | 159 | 7.0 | 10.0 | 0.00 | 0.00 | 0.00 | 80 | 1013.2 |
| 20260509081923 | 53 | 170 | 0.0 | 7.0 | 0.00 | 0.00 | 0.00 | 80 | 1013.4 |
| 20260509081421 | 53 | 110 | 0.0 | 7.0 | 0.00 | 0.00 | 0.00 | 79 | 1013.4 |
| 20260509080918 | 53 | 280 | 0.0 | 9.0 | 0.00 | 0.00 | 0.00 | 79 | 1013.3 |
| 20260509080415 | 53 | 174 | 6.0 | 12.0 | 0.00 | 0.00 | 0.00 | 79 | 1013.3 |
| 20260509075914 | 52 | 126 | 6.0 | 11.0 | 0.00 | 0.00 | 0.00 | 80 | 1013.2 |
| 20260509075410 | 51 | 124 | 0.0 | 10.0 | 0.00 | 0.00 | 0.00 | 81 | 1013.3 |
| 20260509074908 | 51 | 98 | 0.0 | 9.0 | 0.00 | 0.00 | 0.00 | 80 | 1013.2 |
| 20260509074406 | 51 | 62 | 6.0 | 7.0 | 0.00 | 0.00 | 0.00 | 81 | 1013.3 |
| 20260509073901 | 51 | 76 | 0.0 | 0.0 | 0.00 | 0.00 | 0.00 | 83 | 1013.5 |
| 20260509073358 | 51 | 54 | 0.0 | 6.0 | 0.00 | 0.00 | 0.00 | 81 | 1013.4 |
| 20260509072854 | 51 | 43 | 0.0 | 0.0 | 0.00 | 0.00 | 0.00 | 81 | 1013.5 |
| 20260509072350 | 51 | 55 | 0.0 | 7.0 | 0.00 | 0.00 | 0.00 | 79 | 1013.5 |
| 20260509071848 | 51 | 38 | 0.0 | 6.0 | 0.00 | 0.00 | 0.00 | 79 | 1013.5 |
| 20260509071345 | 51 | 358 | 0.0 | 0.0 | 0.00 | 0.00 | 0.00 | 78 | 1013.6 |
| 20260509070842 | 51 | 32 | 0.0 | 0.0 | 0.00 | 0.00 | 0.00 | 76 | 1013.5 |
| 20260509070338 | 52 | 30 | 0.0 | 7.0 | 0.00 | 0.00 | 0.00 | 75 | 1013.4 |
| 20260509065835 | 52 | 82 | 0.0 | 9.0 | 0.00 | 0.00 | 0.00 | 75 | 1013.6 |
| 20260509065331 | 52 | 85 | 0.0 | 12.0 | 0.00 | 0.00 | 0.00 | 75 | 1013.5 |
| 20260509064827 | 52 | 70 | 0.0 | 10.0 | 0.00 | 0.00 | 0.00 | 76 | 1013.3 |
| 20260509064325 | 52 | 32 | 7.0 | 9.0 | 0.00 | 0.00 | 0.00 | 76 | 1013.4 |
| 20260509063822 | 52 | 60 | 6.0 | 11.0 | 0.00 | 0.00 | 0.00 | 76 | 1013.3 |
| 20260509063318 | 52 | 78 | 0.0 | 11.0 | 0.00 | 0.00 | 0.00 | 75 | 1013.4 |
| 20260509062816 | 52 | 84 | 6.0 | 11.0 | 0.00 | 0.00 | 0.00 | 75 | 1013.5 |
| 20260509062313 | 52 | 73 | 6.0 | 8.0 | 0.00 | 0.00 | 0.00 | 75 | 1013.5 |
| 20260509061810 | 52 | 239 | 0.0 | 10.0 | 0.00 | 0.00 | 0.00 | 74 | 1013.5 |
| 20260509061308 | 52 | 72 | 8.0 | 17.0 | 0.00 | 0.00 | 0.00 | 74 | 1013.3 |
| 20260509060804 | 53 | 75 | 8.0 | 12.0 | 0.00 | 0.00 | 0.00 | 73 | 1013.5 |
| 20260509060301 | 53 | 56 | 17.0 | 19.0 | 0.00 | 0.00 | 0.00 | 72 | 1013.4 |
| 20260509055757 | 53 | 46 | 7.0 | 17.0 | 0.00 | 0.00 | 0.00 | 71 | 1013.6 |
| 20260509055253 | 52 | 95 | 11.0 | 15.0 | 0.00 | 0.00 | 0.00 | 73 | 1013.9 |
| 20260509054749 | 53 | 97 | 0.0 | 8.0 | 0.00 | 0.00 | 0.00 | 73 | 1013.9 |
| 20260509054246 | 53 | 35 | 7.0 | 12.0 | 0.00 | 0.00 | 0.00 | 74 | 1014.0 |
| 20260509053745 | 54 | 58 | 0.0 | 10.0 | 0.00 | 0.00 | 0.00 | 69 | 1014.2 |
| 20260509053241 | 54 | 91 | 0.0 | 7.0 | 0.00 | 0.00 | 0.00 | 65 | 1014.3 |
| 20260509052740 | 54 | 97 | 0.0 | 13.0 | 0.00 | 0.00 | 0.00 | 65 | 1014.4 |
| 20260509052237 | 54 | 137 | 11.0 | 12.0 | 0.00 | 0.00 | 0.00 | 66 | 1014.3 |
| 20260509051734 | 53 | 98 | 8.0 | 8.0 | 0.00 | 0.00 | 0.00 | 66 | 1014.3 |
| 20260509051232 | 53 | 104 | 6.0 | 12.0 | 0.00 | 0.00 | 0.00 | 68 | 1014.2 |
| 20260509050728 | 53 | 105 | 9.0 | 11.0 | 0.00 | 0.00 | 0.00 | 71 | 1014.4 |
| 20260509050225 | 54 | 126 | 8.0 | 8.0 | 0.00 | 0.00 | 0.00 | 67 | 1014.4 |
| 20260509045723 | 53 | 92 | 0.0 | 8.0 | 0.00 | 0.00 | 0.00 | 66 | 1014.3 |
| 20260509045219 | 53 | 65 | 0.0 | 0.0 | 0.00 | 0.00 | 0.00 | 69 | 1014.2 |
| 20260509044717 | 54 | 27 | 0.0 | 8.0 | 0.00 | 0.00 | 0.00 | 67 | 1014.6 |
| 20260509044214 | 54 | 51 | 7.0 | 10.0 | 0.00 | 0.00 | 0.00 | 68 | 1014.5 |
| 20260509043710 | 54 | 18 | 8.0 | 9.0 | 0.00 | 0.00 | 0.00 | 67 | 1014.5 |
| 20260509043206 | 54 | 27 | 0.0 | 8.0 | 0.00 | 0.00 | 0.00 | 68 | 1014.4 |
| 20260509042703 | 54 | 38 | 0.0 | 8.0 | 0.00 | 0.00 | 0.00 | 65 | 1014.4 |
| 20260509042159 | 53 | 78 | 0.0 | 7.0 | 0.00 | 0.00 | 0.00 | 69 | 1014.4 |
| 20260509041656 | 54 | 65 | 0.0 | 6.0 | 0.00 | 0.00 | 0.00 | 70 | 1014.7 |
| 20260509041153 | 54 | 176 | 0.0 | 0.0 | 0.00 | 0.00 | 0.00 | 69 | 1014.5 |
| 20260509040652 | 54 | 71 | 0.0 | 0.0 | 0.00 | 0.00 | 0.00 | 67 | 1014.6 |
| 20260509040148 | 54 | 50 | 0.0 | 0.0 | 0.00 | 0.00 | 0.00 | 66 | 1014.5 |
| 20260509035645 | 55 | 76 | 0.0 | 6.0 | 0.00 | 0.00 | 0.00 | 67 | 1014.5 |
| 20260509035142 | 55 | 110 | 0.0 | 6.0 | 0.00 | 0.00 | 0.00 | 67 | 1014.4 |
| 20260509034639 | 55 | 65 | 0.0 | 8.0 | 0.00 | 0.00 | 0.00 | 63 | 1014.6 |
| 20260509034136 | 55 | 55 | 0.0 | 11.0 | 0.00 | 0.00 | 0.00 | 66 | 1014.8 |
| 20260509033633 | 55 | 59 | 0.0 | 0.0 | 0.00 | 0.00 | 0.00 | 67 | 1014.8 |
| 20260509033130 | 55 | 34 | 0.0 | 6.0 | 0.00 | 0.00 | 0.00 | 63 | 1015.0 |
| 20260509032628 | 55 | 34 | 0.0 | 8.0 | 0.00 | 0.00 | 0.00 | 63 | 1014.7 |
| 20260509032124 | 56 | 346 | 0.0 | 6.0 | 0.00 | 0.00 | 0.00 | 62 | 1014.6 |